Wind_Speed
28 28 28 29 30 29 28 28 28 29 30 30 30 29 29 28 27 28 28 27 27 27 26 26 26 24 23 23 21 20 19 17 16 16 15 14 13 13 14 14 14 15 15 15 14 13 13 12 11 10 9 7 6 6 5 5 5 5 5 5 5 5 6 6 6 7 8 10 12 14 16 18 20 21 23 25 27 29 30 31 32 33 33 33 34
28 28 28 29 29 29 28 28 28 29 30 30 30 29 29 28 28 29 29 28 28 28 26 27 27 26 25 24 23 22 21 20 19 18 17 15 14 14 15 15 15 16 16 16 16 16 15 15 14 13 12 10 9 8 8 7 7 7 7 7 7 7 8 8 8 8 9 11 14 15 17 20 22 23 26 27 28 29 31 32 33 33 33 33 33
28 27 28 28 28 29 29 29 29 29 29 30 30 29 29 29 28 29 28 27 27 28 27 27 27 27 26 25 24 23 22 21 20 20 19 16 14 14 14 15 16 17 17 17 17 17 17 16 16 16 15 13 12 11 10 9 9 10 10 10 10 10 11 11 11 11 11 13 14 16 18 20 22 24 26 27 28 28 28 29 30 31 32 33 34
28 27 28 28 28 29 29 30 30 30 30 29 29 29 29 28 28 29 29 28 27 27 27 28 27 26 26 26 25 25 24 23 21 21 19 17 15 15 15 15 16 17 18 18 18 19 19 18 18 18 18 16 14 14 13 12 12 12 12 13 12 13 14 14 14 15 15 16 16 18 20 21 22 23 25 26 27 27 27 27 28 28 30 31 33
29 28 27 28 28 29 29 30 30 30 30 29 29 29 29 28 28 27 28 29 28 27 27 28 28 26 25 26 26 25 24 23 22 21 20 18 16 16 16 16 16 17 18 19 19 19 19 19 19 20 20 19 17 16 16 15 15 15 15 15 15 15 16 17 17 18 18 18 18 18 19 20 21 21 22 24 25 25 26 26 27 29 30 32 34
30 28 28 29 29 28 29 29 29 29 30 30 29 29 29 28 28 27 27 28 29 28 26 27 27 26 24 25 25 25 25 24 22 21 20 18 17 17 17 17 16 17 18 19 19 19 19 19 20 21 21 20 19 18 18 18 17 17 16 17 17 17 18 18 19 19 19 19 18 18 18 18 19 19 20 22 23 24 25 27 28 30 31 33 35
30 29 29 29 29 28 28 29 29 28 29 30 29 29 29 28 28 28 28 28 29 29 27 25 25 25 24 24 25 25 25 24 22 22 21 20 18 17 17 17 17 17 18 19 20 20 20 20 20 21 21 21 20 20 20 19 19 18 18 18 18 18 18 18 18 19 19 19 18 18 17 17 18 19 20 21 23 25 27 29 31 33 35 35 36
31 29 29 29 29 28 28 28 28 28 28 29 30 30 29 29 29 29 28 28 28 28 27 25 24 24 24 24 25 25 24 24 23 22 21 20 19 18 18 18 18 18 19 19 20 21 20 20 20 21 21 21 20 20 20 20 20 19 18 18 18 17 17 17 17 18 19 19 18 18 18 18 19 21 23 25 27 29 31 32 34 36 37 38 38
32 30 29 29 28 28 28 28 28 28 28 29 29 30 30 30 30 30 29 28 28 27 27 26 24 24 24 25 25 26 25 24 24 23 21 20 19 19 18 18 19 19 20 20 21 21 21 20 21 21 21 21 20 19 20 20 19 18 17 17 16 16 16 17 17 18 19 19 19 19 19 19 21 23 26 28 31 33 34 35 36 37 37 38 38
33 32 29 28 28 28 28 28 28 27 28 28 29 30 30 30 31 31 30 29 28 28 27 27 25 23 24 25 26 26 26 25 24 22 21 20 19 19 19 19 20 20 20 21 22 21 20 20 21 21 22 21 20 19 19 20 19 17 16 16 16 16 16 17 17 19 19 19 19 19 20 21 22 25 27 30 32 34 35 37 38 38 38 37 37
34 33 30 28 28 28 28 28 28 27 27 27 28 29 30 30 30 31 31 29 29 29 28 28 26 24 24 25 25 26 25 25 24 22 20 20 20 20 21 20 21 21 21 22 22 22 21 21 21 22 22 21 20 19 19 19 17 16 16 16 16 16 17 17 18 19 20 20 19 20 21 23 25 27 29 31 33 35 37 39 40 39 38 38 37
34 34 32 31 30 28 28 28 28 27 27 27 28 29 30 30 30 31 31 30 29 30 30 29 27 26 26 26 26 26 25 25 24 21 20 21 21 21 22 22 22 22 22 23 23 23 22 22 22 22 22 21 20 20 19 18 17 17 17 17 17 17 18 19 20 21 21 21 21 21 22 24 26 28 30 33 35 37 39 40 40 39 39 39 38
35 35 34 33 32 30 28 28 27 27 28 27 28 29 31 31 30 30 30 30 29 30 31 30 28 28 28 27 26 25 25 25 24 22 21 21 22 23 23 23 23 23 23 23 23 23 23 23 22 22 23 22 21 21 20 19 18 18 19 19 19 19 20 22 22 22 22 22 23 23 23 26 27 29 31 34 37 39 40 41 40 39 38 38 38
36 36 35 35 33 32 30 28 27 27 28 28 28 30 31 32 31 30 30 30 30 30 31 31 30 29 29 28 28 26 26 26 25 22 21 22 23 24 24 24 24 24 24 23 23 24 24 24 23 23 23 23 22 21 21 20 20 20 20 21 21 21 22 24 24 25 24 24 25 25 25 27 29 31 33 36 39 41 42 42 40 39 38 38 38
37 37 37 36 35 34 32 29 28 28 29 30 29 30 32 32 32 31 30 30 30 30 31 32 31 30 30 29 29 27 27 28 26 22 21 22 23 25 25 26 26 25 24 23 23 24 24 24 24 24 24 24 24 23 22 22 22 22 23 23 23 23 24 24 24 25 25 26 26 27 28 29 31 32 34 37 40 42 42 41 39 38 39 39 38
39 38 38 38 36 35 34 31 28 28 30 31 30 30 32 34 33 33 32 31 31 30 30 31 31 30 30 30 30 28 27 29 27 22 20 22 24 26 27 27 27 26 25 23 23 23 23 24 24 24 25 25 25 24 23 23 24 25 25 25 25 25 25 25 24 24 25 26 26 27 28 30 31 33 36 38 41 43 42 41 39 38 39 39 36
39 38 38 39 38 37 35 31 27 28 30 32 31 30 32 34 35 35 33 33 32 31 30 30 30 30 30 30 30 29 28 29 27 23 21 23 25 27 27 27 27 26 25 24 23 23 23 24 24 25 26 26 26 25 25 25 26 27 27 28 27 27 26 26 25 25 26 27 28 29 30 32 33 35 38 41 43 44 44 41 38 37 39 37 33
39 37 38 39 39 39 36 31 27 27 29 31 31 30 31 33 34 35 34 33 33 32 31 30 30 31 31 30 30 29 28 28 27 24 23 24 25 27 28 28 27 26 25 24 24 23 23 23 24 25 26 26 27 27 27 27 28 29 30 30 29 28 28 27 27 27 28 29 30 31 33 34 36 38 41 44 45 45 44 41 37 38 38 36 31
37 35 37 40 41 40 36 31 27 26 27 30 31 31 31 31 32 33 33 33 33 32 31 31 31 31 31 31 30 29 28 28 27 26 25 25 26 27 28 29 28 26 25 24 24 24 24 24 24 25 26 27 28 29 28 29 30 31 32 32 31 30 29 28 28 28 29 30 32 34 35 37 39 41 43 45 45 43 41 40 39 39 37 32 30
36 36 38 41 42 41 36 32 28 26 25 27 29 31 31 31 31 31 31 32 33 32 32 32 32 32 31 31 30 29 29 29 29 27 26 26 27 28 29 30 29 27 25 24 24 24 24 24 25 25 26 27 29 30 30 31 31 32 32 32 31 30 29 29 29 30 31 32 33 35 36 38 40 43 45 45 43 41 40 40 40 37 33 29 29
39 39 40 42 43 41 37 34 31 27 25 26 28 29 30 30 30 30 30 31 32 33 33 32 32 31 31 32 32 31 29 30 30 29 28 28 28 29 30 31 30 28 26 25 25 25 25 25 26 26 27 28 29 31 32 32 32 32 31 31 31 31 30 30 30 31 32 34 35 37 38 39 41 44 45 44 42 41 41 40 38 33 30 30 31
42 41 41 43 43 41 37 35 33 31 28 28 29 30 30 30 29 29 29 30 32 32 33 33 32 31 31 32 33 31 30 30 32 31 29 29 29 30 31 32 32 30 29 28 27 27 27 26 27 27 28 29 30 31 33 34 33 31 31 31 32 31 31 31 31 32 34 35 36 38 39 41 43 44 45 43 41 40 38 36 32 28 27 30 32
42 41 42 43 43 40 38 36 34 32 30 28 28 29 30 30 30 30 31 32 33 33 33 33 33 32 32 31 32 31 31 31 32 32 30 30 30 31 32 33 33 32 32 31 29 29 29 29 29 29 29 30 30 31 33 34 33 32 32 32 32 32 32 33 33 34 35 36 38 39 41 43 44 45 43 41 39 37 35 31 28 26 27 29 31
41 41 42 44 43 40 37 36 35 32 30 28 28 29 29 30 31 32 32 33 34 34 33 33 33 32 32 31 31 31 31 31 31 32 31 30 31 32 33 35 35 34 34 33 32 31 31 31 31 30 30 30 30 31 33 34 34 33 33 33 33 33 34 34 35 36 36 37 39 40 42 44 44 43 41 37 36 34 31 28 26 26 27 29 31
39 40 41 43 43 39 37 36 35 32 30 29 30 31 30 30 31 31 31 32 34 34 33 32 32 32 32 31 31 31 31 31 31 31 30 30 31 32 33 35 36 36 35 34 34 33 32 31 31 31 30 30 29 30 32 34 34 34 34 34 34 35 35 36 36 36 37 38 40 42 43 43 43 40 37 35 34 32 28 26 27 27 28 29 31
38 40 42 44 42 39 37 36 33 32 32 32 33 33 32 32 32 32 30 30 31 31 30 29 29 29 29 29 29 29 29 29 28 28 29 30 31 32 34 35 36 36 35 35 34 33 32 32 31 31 30 29 29 30 32 33 34 34 34 35 35 36 36 36 36 37 38 40 42 43 43 42 39 37 35 34 33 30 26 26 27 28 29 30 31
39 41 44 44 42 39 37 36 34 33 34 35 34 34 34 33 34 33 32 31 31 30 29 29 28 28 29 29 29 28 28 27 26 26 27 28 30 32 33 34 35 35 34 33 32 32 32 32 31 30 29 29 30 31 33 33 34 34 34 35 35 36 37 37 37 38 40 41 41 41 40 39 36 34 34 34 32 28 26 26 28 29 30 32 32
41 44 45 44 42 40 38 36 36 36 36 36 35 34 34 33 33 33 33 33 33 33 32 32 31 31 31 32 31 30 29 28 27 27 27 28 30 32 33 34 34 34 33 32 32 31 31 31 31 31 30 31 31 32 33 34 34 35 35 36 36 37 38 37 38 40 41 40 39 38 36 35 34 33 33 34 32 28 26 27 28 29 31 32 34
44 46 46 44 42 40 39 38 38 38 37 36 34 33 33 33 32 32 33 33 33 33 33 33 32 32 32 32 31 30 30 30 29 29 30 30 30 31 32 33 33 33 32 32 32 32 32 31 31 31 31 32 32 33 34 34 35 35 36 36 38 39 39 38 38 39 38 36 35 35 34 34 33 33 35 35 32 28 27 28 29 30 31 33 34
47 47 46 45 43 41 41 39 38 37 36 34 32 31 31 31 31 31 31 31 31 31 31 30 30 29 28 28 28 28 28 29 29 30 31 32 32 31 31 32 32 32 31 31 32 32 32 32 31 31 32 32 33 33 33 35 36 37 36 36 37 38 38 37 37 36 34 33 33 32 32 33 34 36 37 35 31 29 28 29 30 31 32 33 35
48 48 46 45 44 42 40 38 36 34 33 31 30 30 29 29 29 29 28 27 27 27 27 26 26 26 25 25 26 26 26 27 28 29 30 30 30 29 28 28 29 28 27 28 29 29 30 30 29 29 30 32 31 31 32 34 35 35 35 35 35 35 35 34 32 31 30 31 31 32 33 35 37 38 36 32 29 29 29 30 30 31 33 34 36
49 48 47 45 43 40 37 34 33 32 31 29 28 28 28 28 28 28 26 25 25 25 24 24 24 25 25 25 25 25 26 26 26 27 27 27 27 26 25 24 25 25 25 26 27 27 27 28 28 28 29 30 29 29 30 32 32 32 33 33 34 34 33 30 27 27 28 30 32 34 36 38 38 35 32 29 28 29 30 30 31 32 33 35 36
49 48 46 43 40 37 35 33 32 31 30 30 30 28 27 27 27 26 25 25 25 25 24 24 24 25 26 26 26 26 26 26 26 26 26 26 26 26 26 25 25 26 27 28 28 28 29 30 30 30 31 30 30 30 30 31 32 31 30 32 32 31 29 27 26 27 28 30 33 35 36 35 33 30 29 28 29 29 30 31 32 33 34 35 37
49 47 43 38 36 36 34 31 31 30 28 29 29 28 26 26 26 26 25 25 24 24 25 25 26 26 26 25 26 26 26 26 26 26 25 25 26 27 28 27 28 29 29 29 29 30 31 32 33 33 32 32 32 31 30 32 33 30 28 29 29 28 27 28 27 27 27 29 32 33 32 30 29 28 28 29 29 29 30 32 32 33 34 35 36
47 43 39 37 36 36 35 32 30 29 29 28 28 27 26 26 26 26 25 25 26 26 27 27 27 27 27 27 26 26 26 26 25 24 25 26 27 28 28 28 28 28 29 29 30 31 32 32 33 33 33 33 31 30 30 32 31 28 27 27 28 28 29 27 25 26 28 30 32 31 29 28 28 28 28 29 29 30 31 33 33 34 35 36 36
47 43 40 39 38 35 34 33 32 31 30 30 28 27 26 27 27 25 24 25 26 27 27 27 28 29 30 29 28 28 27 27 25 24 25 27 28 28 28 28 27 27 27 28 29 30 32 33 33 32 31 30 30 30 31 31 29 28 28 28 29 30 28 25 24 27 30 32 32 30 28 28 28 28 28 30 30 31 32 33 34 35 35 35 36
48 46 44 42 40 36 34 33 32 31 31 30 29 29 28 28 27 25 23 24 26 26 26 28 30 32 32 32 31 30 30 28 26 26 28 29 29 28 28 28 28 28 29 30 31 32 33 33 32 31 31 31 32 33 33 31 30 30 30 30 31 30 27 26 27 30 31 32 31 30 28 29 29 29 29 31 32 33 33 34 35 36 36 36 36
48 47 46 43 39 36 35 34 32 32 32 32 31 31 30 29 28 27 26 26 27 28 30 32 33 33 34 34 34 33 32 31 29 30 31 30 29 29 29 30 31 31 31 32 33 34 34 34 33 34 34 33 33 35 35 32 31 30 29 29 30 29 28 28 30 31 31 31 31 30 29 29 30 30 31 31 32 34 34 34 34 35 36 36 37
48 46 45 43 40 37 36 36 36 36 36 35 34 32 31 31 31 31 30 30 31 32 33 33 33 34 35 36 36 35 34 33 33 34 34 32 31 31 32 33 33 33 33 32 32 33 36 37 36 35 34 33 33 34 33 33 32 30 28 28 29 29 30 31 31 30 30 31 32 32 31 30 30 31 32 32 33 34 34 34 34 34 35 36 37
48 49 47 45 42 39 38 38 38 37 37 38 37 35 34 34 34 34 33 33 33 34 34 34 34 34 35 36 37 36 35 35 35 35 35 34 34 34 34 34 33 33 32 32 31 33 35 35 33 32 33 33 32 31 30 32 32 30 28 29 30 31 32 33 32 31 30 30 31 32 32 32 32 33 33 33 33 34 34 34 34 34 35 35 36
47 48 48 46 43 40 39 38 37 36 37 40 40 38 36 36 36 36 36 34 34 34 34 34 34 34 35 36 37 37 36 35 35 35 35 35 35 35 35 34 32 32 34 34 33 33 34 33 31 31 32 33 34 33 32 33 33 30 29 30 32 33 33 34 34 33 32 31 32 32 32 32 33 33 33 34 34 34 33 33 33 34 35 35 35
45 45 46 45 42 41 39 37 37 37 38 40 40 40 39 38 37 36 35 34 33 33 33 33 33 33 33 34 34 34 34 34 34 34 34 35 36 36 35 33 32 33 35 34 33 32 33 33 33 32 31 31 33 34 33 32 31 31 30 31 33 34 34 34 34 33 33 32 32 32 32 32 33 33 33 34 33 32 32 32 33 33 34 34 34
42 43 44 43 41 39 36 36 39 40 39 39 40 39 37 36 36 35 34 33 33 32 32 32 32 32 31 32 32 32 33 33 34 34 35 36 37 37 35 32 31 33 33 32 31 31 30 30 31 31 31 32 33 33 32 31 31 31 32 33 33 34 35 34 34 33 33 33 33 33 33 33 32 32 32 32 32 32 32 32 32 32 32 33 31
37 39 41 42 41 37 34 34 37 38 37 37 38 36 32 30 29 29 29 29 29 28 29 29 30 30 31 31 31 32 33 34 35 36 38 39 38 36 33 30 30 31 31 29 30 30 29 28 29 30 30 31 32 32 31 31 30 31 33 33 33 34 34 34 34 34 34 34 34 34 34 33 32 32 31 31 31 32 32 32 32 32 32 31 30
29 33 36 38 39 37 32 31 33 34 33 33 33 33 31 28 26 25 24 25 26 26 27 28 29 31 31 32 32 33 34 34 35 36 38 37 35 33 31 29 28 28 29 29 30 31 30 29 29 29 29 30 30 30 30 30 30 32 33 33 33 33 33 34 34 35 35 35 34 34 33 33 32 32 32 32 32 32 32 32 31 31 30 29 29
17 22 26 30 34 36 32 28 28 29 28 27 27 27 27 27 25 23 23 24 25 26 27 28 28 30 31 31 32 33 34 34 35 36 35 34 31 30 30 29 28 28 29 29 30 30 30 28 28 28 28 29 30 30 31 32 32 33 33 33 33 34 34 35 35 35 34 34 33 33 33 33 33 33 33 34 33 33 32 31 31 30 29 27 27
13 16 18 21 25 30 30 28 26 25 25 24 24 24 23 22 21 21 22 21 22 23 25 25 24 25 27 29 32 34 35 35 35 34 32 31 30 30 30 30 30 29 29 29 30 30 30 29 28 29 30 30 31 32 33 33 33 33 34 34 34 35 35 35 35 34 33 33 33 33 33 34 34 34 34 34 34 33 33 32 31 30 29 28 26
13 14 16 19 22 24 24 24 23 22 21 21 20 19 19 19 19 21 21 21 20 20 21 23 23 24 25 27 30 31 31 31 31 30 30 29 29 29 30 30 29 29 28 29 30 31 31 31 31 32 32 32 33 33 33 33 33 34 34 34 35 35 35 34 33 33 33 32 32 33 33 33 34 34 34 34 33 33 32 32 31 29 29 28 27
12 12 14 18 20 20 19 20 20 19 17 16 15 14 15 15 16 18 20 21 20 19 20 22 24 25 26 27 29 29 28 28 28 28 28 29 29 29 30 31 31 31 30 31 32 32 33 32 32 33 33 33 33 33 33 33 33 33 33 34 34 34 33 33 33 32 32 32 32 32 33 33 33 33 33 33 33 32 31 31 30 29 28 28 28
10 10 12 15 16 15 16 17 18 20 19 16 13 12 12 12 13 15 16 18 19 20 21 23 24 25 26 27 28 28 28 28 28 28 28 29 30 31 31 32 31 31 31 31 32 33 33 33 33 34 34 33 32 32 32 32 32 33 33 33 33 33 32 32 32 32 31 31 32 32 32 32 32 32 32 32 31 31 30 30 30 29 29 29 29
12 11 11 13 14 14 14 13 14 16 18 18 16 15 14 13 13 14 15 15 17 19 21 22 24 26 27 28 29 30 30 31 31 31 32 32 32 32 32 32 32 32 33 33 34 35 35 35 34 34 33 33 32 32 32 32 32 33 32 32 31 31 31 31 31 31 31 31 31 31 31 31 31 31 31 31 30 30 31 31 31 31 31 32 32
Wind_Direction
220 221 220 222 223 222 220 219 219 219 220 223 224 222 224 224 224 227 229 229 230 233 233 231 230 229 229 230 232 235 237 241 246 249 251 250 247 244 241 239 239 238 239 240 242 244 244 244 246 249 249 245 242 242 243 250 259 261 260 261 264 271 276 274 277 287 293 297 304 310 314 318 322 324 323 321 321 320 322 324 324 323 324 325 326
219 218 218 221 222 223 223 221 221 221 221 223 223 222 223 224 223 226 228 228 229 231 231 231 230 229 229 231 233 235 237 241 246 251 254 255 253 249 246 243 242 241 240 239 240 242 244 245 248 252 252 250 250 249 250 255 262 263 262 264 271 278 279 274 274 277 280 288 297 304 306 310 314 315 313 313 314 315 318 321 321 321 322 323 323
220 218 218 219 220 221 222 222 222 223 223 223 223 223 223 225 225 226 226 227 229 230 230 231 231 229 228 231 233 235 237 240 245 252 256 259 258 255 253 249 245 244 242 240 239 239 241 244 247 251 252 251 250 252 253 256 260 263 267 271 277 281 282 280 281 284 285 288 293 297 299 302 306 307 307 309 311 312 314 315 316 317 319 321 323
220 219 217 218 219 219 220 222 222 223 224 224 224 224 223 224 227 228 226 226 228 230 230 230 231 229 228 230 233 234 237 240 245 251 255 258 260 258 256 253 248 246 245 242 240 239 239 241 244 248 250 250 250 252 256 259 262 264 269 273 277 280 282 285 287 289 290 292 295 298 300 301 304 306 307 309 311 312 314 316 317 318 319 319 321
222 219 217 218 219 218 218 220 221 223 225 226 225 225 224 224 226 228 228 228 228 229 230 230 231 230 228 230 233 235 239 242 246 250 252 254 258 258 257 255 251 248 247 245 243 241 239 240 243 246 248 250 251 253 256 259 261 264 268 273 276 279 282 286 289 292 294 297 300 300 301 303 304 306 307 308 310 313 316 319 320 321 321 320 321
225 221 218 218 219 219 218 219 221 222 224 225 226 226 226 224 225 227 228 230 230 230 230 231 232 232 229 231 234 237 241 243 245 247 249 252 255 257 257 256 254 251 249 247 246 244 241 240 242 244 247 249 251 253 256 258 260 263 267 272 276 279 282 286 289 293 296 299 302 303 304 304 306 308 309 311 314 318 320 321 322 322 322 322 323
228 225 221 220 220 220 219 219 221 221 222 224 225 226 226 224 224 225 226 229 232 232 231 232 233 233 231 232 235 238 240 242 243 243 246 251 254 255 256 257 257 254 252 250 249 247 244 242 242 244 246 248 249 251 254 257 259 262 266 271 275 279 283 288 291 294 297 300 303 306 308 309 311 314 316 317 320 323 324 324 325 325 325 324 326
231 230 226 224 223 221 221 220 221 222 221 222 224 225 225 224 224 225 225 226 231 233 233 233 233 233 232 233 236 238 239 240 241 241 244 250 252 252 254 256 257 256 254 251 250 248 245 243 243 244 246 247 247 248 252 255 258 261 265 268 272 276 282 287 291 295 299 303 307 311 313 316 320 321 322 324 325 326 327 327 325 326 326 326 328
232 232 230 228 227 224 223 222 222 222 222 221 223 224 225 224 225 226 226 226 228 232 233 233 233 233 233 234 236 239 241 241 242 243 244 247 250 251 252 254 256 257 255 252 250 248 245 244 244 244 245 245 245 245 248 252 256 259 262 265 269 276 282 287 292 297 301 305 309 312 314 318 322 322 323 325 326 326 327 326 324 325 325 325 327
232 233 232 230 229 228 226 224 223 223 223 222 223 224 225 225 226 227 228 227 227 230 231 231 232 232 234 235 236 239 242 244 244 245 246 246 247 249 250 251 253 255 254 252 249 248 245 243 243 243 243 243 243 242 244 248 252 254 257 263 268 275 281 287 294 299 303 305 308 311 313 317 320 320 322 324 324 324 325 325 324 324 323 323 325
231 233 234 232 231 230 228 227 225 224 225 225 224 224 225 225 226 228 230 227 227 230 231 230 231 231 233 235 237 239 242 245 246 245 245 246 245 246 248 249 251 252 253 251 248 247 245 242 241 240 240 241 240 238 238 241 245 249 255 263 269 276 283 290 295 299 302 303 306 308 312 315 317 318 320 322 322 323 324 323 322 321 321 322 324
229 231 233 233 233 232 231 230 228 225 225 226 225 224 225 225 226 228 229 228 227 229 232 232 231 231 233 235 238 240 241 244 245 244 244 245 245 244 245 247 249 250 251 251 248 245 244 243 240 238 238 237 234 232 233 235 241 248 255 263 270 279 286 291 294 298 300 300 301 304 308 311 313 316 318 320 322 323 323 321 319 319 320 321 321
226 228 230 232 234 234 233 232 230 227 226 226 225 224 224 225 225 226 228 229 228 228 231 233 232 232 233 235 237 239 241 243 244 243 242 243 243 244 243 244 247 248 249 250 248 244 243 242 239 237 235 233 230 229 230 233 240 248 256 264 271 278 285 289 294 296 297 297 297 300 304 307 309 313 317 319 321 323 321 319 318 318 319 317 317
224 225 227 230 232 233 234 235 232 228 225 226 226 224 224 225 225 225 227 228 228 227 229 232 233 232 233 236 237 238 242 244 243 239 240 240 241 242 243 243 244 245 247 248 246 244 242 240 238 235 232 231 229 230 233 237 242 248 255 263 270 276 281 286 291 295 295 295 296 299 303 305 308 312 316 318 320 320 319 317 317 317 316 315 316
224 223 224 227 229 231 233 234 233 229 225 225 227 226 224 224 223 223 225 227 228 227 228 231 233 232 233 236 237 237 240 244 243 236 235 238 239 241 242 241 241 242 243 245 245 244 242 239 237 234 231 231 231 233 236 242 247 252 256 261 267 272 277 282 286 288 289 290 292 296 300 303 307 310 314 315 317 317 316 315 315 315 314 315 318
223 222 222 225 228 229 230 232 232 229 225 225 227 227 224 223 223 222 223 225 227 227 227 230 232 232 232 235 237 236 237 241 242 235 230 234 238 239 239 240 239 239 240 243 244 244 242 240 238 235 233 233 234 236 239 245 251 255 259 264 268 273 277 281 284 286 286 287 289 292 297 301 304 306 309 312 314 315 315 314 314 313 314 316 319
224 223 222 223 226 227 229 229 229 229 226 225 228 229 226 223 223 222 222 224 226 227 227 228 231 232 232 233 236 236 236 238 240 235 229 230 235 238 238 238 239 239 239 241 242 243 242 241 240 239 237 237 238 239 242 247 253 257 262 266 270 274 277 281 285 287 288 288 291 294 298 301 303 305 309 312 314 315 313 312 311 311 313 316 317
224 223 221 222 224 226 227 225 224 226 227 227 229 230 228 226 224 223 223 224 226 228 228 229 231 233 233 234 235 236 237 238 238 234 230 228 232 236 238 238 239 238 238 239 241 242 242 241 241 241 241 242 243 244 245 248 254 259 263 267 270 274 277 281 285 287 287 288 292 296 299 301 304 307 310 312 313 312 310 310 311 311 313 315 313
223 222 220 220 222 224 224 220 219 223 225 226 228 228 228 227 226 225 224 225 227 229 229 229 230 232 234 235 235 235 237 238 236 233 230 229 230 234 237 239 239 239 238 240 241 242 241 241 241 241 242 244 246 247 248 250 254 258 263 266 269 273 278 282 285 286 286 289 292 295 298 301 304 306 308 309 309 308 308 309 311 311 312 311 308
223 221 218 218 220 222 221 216 216 221 221 221 224 226 227 227 227 226 226 226 227 228 229 230 230 231 233 235 235 234 234 237 237 233 229 230 230 232 236 240 241 241 240 241 243 244 243 243 243 242 243 244 246 248 250 251 254 257 260 264 269 273 277 281 283 285 287 289 291 293 296 299 301 303 304 306 306 305 305 307 309 309 308 306 306
221 220 217 217 219 221 218 215 216 219 220 220 222 223 224 226 227 227 226 227 228 229 230 232 231 230 232 234 236 234 232 235 238 235 231 230 231 233 236 240 242 243 243 243 244 246 245 244 244 243 243 244 246 248 250 252 253 255 258 263 268 272 276 279 282 284 287 288 290 292 295 297 299 300 301 302 302 302 303 305 307 307 306 307 309
221 220 217 215 218 220 217 214 216 219 220 222 223 224 225 226 227 228 227 229 230 231 231 232 232 232 232 233 236 236 233 233 236 237 233 230 231 233 237 241 243 244 244 244 245 246 247 246 245 244 243 242 243 246 249 252 253 255 258 263 267 271 274 277 279 282 284 285 288 291 293 295 297 298 299 299 299 300 302 303 304 303 304 307 309
221 219 215 215 218 219 217 215 217 220 222 225 226 227 228 228 230 230 229 230 232 232 232 233 233 233 233 233 235 237 235 232 234 236 235 232 232 234 237 241 243 244 245 246 246 247 249 248 247 245 243 242 242 244 247 251 253 256 259 263 266 269 272 274 277 279 282 284 287 289 291 293 295 297 298 299 299 301 302 301 299 299 302 305 306
220 218 214 215 218 219 217 217 218 221 224 226 227 228 229 230 232 232 232 232 233 234 233 232 233 232 232 232 234 236 236 233 232 234 234 234 234 235 237 241 244 245 246 247 248 248 249 249 248 247 244 243 242 244 248 251 255 258 260 263 266 268 271 273 276 278 281 284 287 289 290 292 294 296 297 297 299 300 300 297 296 297 300 303 304
218 216 213 214 217 218 217 218 220 221 223 224 226 229 231 231 232 232 232 232 233 233 232 231 231 231 232 232 233 235 237 237 235 234 234 234 235 236 237 240 244 247 248 248 249 250 251 252 252 252 250 249 249 250 252 254 256 259 262 264 267 269 271 274 276 279 282 285 287 288 290 291 293 294 295 296 299 299 295 293 293 296 298 300 302
216 213 212 213 215 217 218 219 219 221 222 225 228 231 232 232 232 231 230 230 230 231 231 230 230 230 231 233 233 236 238 239 239 238 235 233 235 237 238 240 244 247 249 250 251 252 253 254 255 256 257 257 256 255 256 257 259 261 264 267 269 271 273 275 278 280 282 284 285 287 289 290 292 292 293 296 298 295 290 290 292 295 297 299 301
211 209 209 211 214 217 219 219 219 221 224 227 230 232 233 233 234 233 232 231 232 233 233 234 234 234 234 236 236 238 240 241 241 241 236 233 234 237 239 241 243 247 250 252 254 254 255 256 257 259 260 259 258 258 258 260 261 263 265 267 269 271 273 275 278 280 281 283 285 286 288 289 291 292 294 297 297 291 287 289 292 295 298 300 301
206 206 206 209 213 217 218 219 220 224 227 230 232 233 234 235 236 236 237 237 238 239 240 241 241 241 241 241 241 241 241 241 241 241 239 236 235 237 239 241 243 246 250 253 256 256 256 256 257 257 257 257 257 257 259 260 261 262 264 265 267 269 272 275 277 279 281 283 285 286 286 288 289 290 294 297 295 289 287 291 293 295 298 299 301
202 203 205 208 213 217 218 219 221 225 229 231 233 234 235 237 238 239 239 239 240 242 243 244 244 245 245 245 244 242 242 241 241 241 241 240 238 239 241 242 243 246 249 252 254 255 255 255 255 255 256 256 256 257 259 260 261 262 263 265 267 270 273 277 279 280 282 282 282 283 284 285 286 288 292 295 292 288 289 292 294 295 297 299 301
201 203 205 209 214 217 218 219 222 226 230 232 233 235 235 235 236 237 237 237 238 239 240 241 241 242 243 243 242 241 240 241 241 241 242 243 243 242 244 246 246 247 249 251 252 254 255 256 256 257 257 257 257 258 260 261 262 263 265 267 270 273 276 278 280 280 280 278 278 279 282 283 284 287 291 291 288 287 289 292 293 295 297 299 301
202 205 207 211 215 217 219 220 221 224 227 227 229 231 231 231 232 233 234 233 233 234 235 236 236 238 238 237 237 238 237 238 240 240 242 244 245 246 247 250 252 253 253 253 254 254 256 257 258 259 259 260 262 263 264 265 267 268 270 270 271 273 274 275 276 277 276 275 275 277 279 281 284 287 288 286 285 286 289 291 293 296 298 300 302
204 207 210 214 216 215 215 216 217 219 221 221 221 224 227 228 229 230 230 229 228 229 230 231 233 234 234 233 233 235 235 235 237 239 241 244 246 247 248 251 256 258 257 255 253 254 255 257 258 259 261 263 265 267 268 270 271 272 274 274 272 270 269 270 273 276 277 276 276 277 278 281 283 284 283 282 283 286 289 291 294 296 298 300 303
205 208 211 214 214 211 209 210 211 213 216 218 219 222 226 228 227 227 227 227 227 227 228 229 230 231 230 229 230 233 234 234 235 237 239 243 246 247 247 249 253 255 254 253 252 255 257 258 258 259 260 261 262 263 264 266 266 267 268 268 267 267 268 270 273 277 279 279 279 279 280 281 280 279 279 281 284 287 290 292 295 296 299 301 303
207 210 210 209 209 208 206 206 208 211 215 218 220 220 222 223 223 221 222 225 226 226 226 227 229 231 231 230 230 232 234 235 236 238 241 245 247 247 246 246 247 248 249 250 251 253 255 256 257 258 259 260 260 259 259 260 261 260 258 259 262 265 267 269 274 279 282 283 283 282 280 278 277 277 280 283 286 289 291 293 295 297 299 301 303
205 207 206 204 205 206 206 205 208 211 214 216 216 213 212 216 219 217 217 222 225 225 225 226 227 231 233 233 232 234 235 235 237 241 245 248 249 249 248 247 247 247 248 250 251 252 254 256 257 258 259 259 259 259 257 256 256 255 254 257 264 267 266 268 275 282 284 286 285 281 277 276 276 279 283 285 287 289 291 293 295 297 299 301 303
203 201 200 202 204 205 205 207 209 209 208 207 208 208 209 215 218 216 216 221 226 227 227 228 230 233 235 235 234 234 236 237 238 242 246 247 249 250 250 250 250 249 250 251 252 252 253 254 255 255 255 255 254 253 251 250 250 249 251 256 263 267 268 272 279 283 284 285 283 278 275 276 278 281 283 285 287 290 292 294 296 297 299 301 304
204 202 200 200 202 203 205 206 207 205 204 205 208 211 213 216 218 219 219 224 230 232 234 235 236 236 237 237 237 236 237 238 239 240 243 246 248 250 252 252 252 251 251 251 251 250 250 251 252 251 249 247 247 246 244 244 246 247 251 258 264 267 271 275 279 282 283 282 278 275 274 276 279 281 283 286 288 291 292 294 295 297 299 302 305
203 202 200 199 200 201 203 204 205 208 210 212 214 217 218 219 223 225 226 228 231 234 236 237 238 238 238 239 239 239 239 239 238 239 241 244 246 248 249 250 252 252 251 251 250 248 245 243 243 244 244 244 246 245 241 241 246 251 256 262 267 269 272 275 277 279 279 276 274 274 275 277 280 282 284 286 288 290 291 294 296 299 302 305 307
201 200 199 198 198 198 202 207 212 215 216 217 217 218 220 223 227 230 230 230 230 232 234 236 238 238 239 240 240 240 240 239 238 238 240 241 243 245 248 251 254 253 252 252 251 248 244 241 240 241 243 247 250 249 244 242 248 255 262 266 269 271 272 273 274 274 273 271 272 275 277 279 281 283 285 287 288 290 292 295 298 300 303 306 306
199 198 196 196 196 199 204 209 213 215 217 218 218 219 223 227 230 232 233 232 231 231 232 235 237 239 239 239 240 240 240 239 239 240 242 244 247 251 255 257 257 255 252 252 251 249 248 249 248 247 248 251 252 248 244 244 249 254 261 268 271 273 273 274 274 273 270 270 273 276 279 281 282 283 286 288 289 292 294 297 299 301 303 304 305
196 196 196 197 199 202 205 207 210 214 216 218 219 222 226 231 233 233 233 234 234 233 233 233 235 238 239 238 239 239 240 241 243 245 247 249 252 256 258 259 257 255 253 253 252 250 249 250 249 245 246 247 247 245 246 248 251 256 262 267 270 272 271 271 272 271 270 270 271 274 277 280 282 285 288 289 291 293 295 297 300 301 302 304 304
197 197 198 200 204 208 209 210 212 215 219 222 224 228 232 234 234 233 234 235 235 235 235 234 235 237 238 238 239 240 241 243 246 249 251 252 254 256 258 257 255 255 253 253 253 250 248 248 248 245 243 244 247 249 252 253 255 260 264 266 267 267 267 267 267 268 269 270 271 273 276 279 282 286 288 289 291 293 295 298 300 301 301 302 303
201 202 203 206 210 213 215 214 215 218 223 227 231 234 236 235 233 231 230 230 231 232 233 234 235 236 238 239 239 240 242 244 246 247 248 250 252 254 253 252 253 254 253 251 251 250 247 247 248 246 243 243 247 250 253 254 258 263 265 264 265 265 265 265 266 266 268 270 272 274 277 279 281 283 285 287 290 293 295 297 297 297 297 298 299
207 207 208 211 214 216 217 218 219 221 226 229 232 236 239 238 233 228 227 228 229 230 232 233 233 234 236 236 237 238 240 241 243 243 244 246 248 249 246 245 248 251 250 245 243 244 246 247 247 246 245 247 249 251 253 256 259 262 262 262 263 263 264 265 265 266 268 270 273 275 277 279 281 283 285 287 290 292 293 293 293 293 295 296 296
205 208 210 213 213 211 211 213 215 218 222 225 226 230 234 235 230 225 224 226 228 228 230 232 233 234 236 237 237 239 240 240 240 242 243 243 243 242 241 241 242 245 246 242 240 241 243 244 245 246 249 251 253 254 256 258 259 260 261 262 262 262 263 264 266 268 270 273 275 278 280 282 284 286 286 288 288 288 288 289 290 292 293 293 293
197 203 209 214 213 212 213 215 212 210 213 218 220 223 229 232 232 230 227 228 231 233 235 236 236 238 239 239 238 238 238 237 236 237 238 238 236 236 239 242 243 244 245 245 246 246 246 246 247 250 253 254 255 257 258 259 260 261 262 262 262 263 264 265 267 270 274 277 279 282 283 284 285 287 287 288 288 288 288 289 289 289 288 288 288
210 208 207 209 210 211 217 222 220 214 212 215 219 225 228 231 234 233 230 230 236 238 236 235 237 237 237 237 238 237 236 235 234 233 234 235 237 239 242 244 244 243 243 244 246 248 250 251 252 254 254 255 256 257 258 259 259 260 260 261 262 263 265 267 270 274 277 279 281 282 283 284 286 287 287 288 288 288 288 288 288 287 286 285 285
202 204 204 206 207 208 211 214 215 215 216 216 218 222 222 222 229 234 231 230 235 234 229 231 238 240 237 238 241 241 238 235 236 238 241 243 245 247 249 249 247 245 245 247 249 251 251 251 252 252 254 255 257 257 257 257 257 257 258 260 262 265 268 271 274 276 278 279 280 282 283 285 286 286 287 287 287 287 287 287 286 286 285 284 283
186 188 192 197 201 204 205 204 204 205 207 210 215 219 217 218 226 233 233 234 238 237 232 232 236 236 234 237 242 244 243 243 244 247 249 251 251 250 249 246 244 243 245 248 251 252 253 253 253 254 256 257 257 257 257 256 257 258 260 263 266 269 271 273 274 275 277 278 279 280 282 283 284 284 285 285 285 285 285 285 284 283 283 282 283
203 200 196 193 194 196 200 206 208 206 204 207 214 219 220 222 226 231 236 237 238 238 237 236 234 233 233 236 241 246 250 252 253 252 251 250 249 248 246 246 246 247 248 250 252 253 254 255 256 257 258 258 257 257 257 258 259 261 264 265 268 269 270 271 273 275 276 278 279 280 281 283 283 284 284 284 284 285 284 284 283 283 282 282 283
231 227 218 211 208 205 203 211 218 216 214 216 220 223 227 234 238 242 247 248 244 242 242 241 239 238 239 240 242 246 249 250 251 250 250 250 250 251 252 253 253 253 252 252 253 254 255 256 257 257 257 257 257 257 258 260 261 263 264 265 266 268 269 272 274 276 278 279 281 282 283 284 284 285 285 285 286 286 285 284 284 284 284 284 284
Height
3179 3181 3184 3186 3189 3191 3193 3195 3198 3200 3202 3204 3206 3208 3210 3212 3214 3215 3217 3218 3219 3221 3222 3224 3225 3227 3229 3230 3231 3232 3233 3234 3235 3236 3237 3238 3239 3239 3240 3241 3242 3242 3243 3244 3244 3245 3246 3246 3247 3247 3248 3249 3249 3249 3250 3250 3250 3251 3251 3251 3251 3251 3251 3251 3251 3251 3251 3250 3250 3250 3249 3248 3248 3247 3246 3245 3244 3242 3240 3240 3239 3237 3236 3235 3233
3176 3179 3182 3184 3186 3189 3191 3194 3196 3198 3200 3201 3204 3206 3208 3210 3212 3213 3214 3216 3217 3219 3220 3222 3223 3225 3227 3228 3229 3230 3231 3233 3233 3234 3235 3236 3237 3238 3238 3239 3240 3241 3241 3242 3243 3244 3244 3245 3246 3246 3247 3248 3248 3248 3249 3249 3250 3250 3250 3250 3250 3250 3250 3250 3251 3251 3251 3250 3250 3249 3249 3248 3247 3246 3245 3244 3243 3241 3240 3238 3237 3236 3235 3234 3233
3174 3177 3179 3181 3184 3186 3189 3191 3193 3195 3197 3199 3201 3204 3206 3208 3209 3211 3212 3214 3215 3216 3218 3220 3221 3223 3225 3226 3227 3228 3229 3231 3232 3233 3234 3235 3236 3236 3237 3237 3238 3239 3240 3241 3242 3242 3243 3244 3245 3245 3246 3247 3247 3248 3248 3249 3249 3249 3249 3249 3250 3250 3250 3250 3250 3250 3250 3250 3249 3249 3248 3247 3246 3246 3244 3243 3242 3241 3240 3239 3237 3236 3234 3233 3231
3172 3174 3177 3179 3181 3184 3186 3188 3191 3193 3195 3197 3199 3201 3203 3205 3207 3208 3210 3212 3213 3214 3216 3217 3219 3220 3222 3223 3225 3226 3227 3229 3230 3231 3232 3233 3234 3235 3235 3236 3237 3237 3238 3239 3240 3241 3242 3243 3243 3244 3245 3246 3246 3247 3247 3248 3248 3248 3248 3248 3249 3249 3249 3249 3249 3249 3248 3249 3248 3248 3247 3246 3245 3244 3243 3241 3241 3240 3239 3238 3237 3235 3234 3233 3231
3170 3172 3175 3177 3179 3181 3183 3186 3188 3190 3192 3195 3197 3199 3201 3203 3205 3206 3208 3209 3211 3212 3213 3215 3216 3218 3220 3221 3223 3224 3226 3227 3229 3229 3231 3232 3233 3233 3234 3234 3235 3235 3236 3237 3238 3239 3240 3241 3242 3243 3243 3244 3245 3246 3246 3246 3247 3247 3247 3247 3247 3248 3248 3248 3247 3247 3247 3247 3247 3246 3246 3245 3244 3243 3242 3240 3239 3238 3237 3236 3235 3234 3232 3231 3229
3168 3170 3173 3174 3176 3179 3181 3183 3185 3187 3190 3192 3195 3197 3199 3201 3202 3204 3206 3207 3208 3210 3211 3212 3214 3216 3218 3219 3220 3222 3224 3225 3226 3228 3229 3230 3231 3231 3232 3232 3233 3234 3234 3235 3236 3237 3238 3239 3240 3241 3242 3243 3244 3244 3245 3245 3245 3246 3246 3246 3246 3246 3246 3246 3246 3246 3245 3245 3245 3244 3244 3243 3242 3242 3241 3239 3238 3237 3236 3234 3233 3232 3230 3228 3226
3165 3168 3170 3172 3174 3176 3178 3180 3183 3185 3187 3190 3192 3194 3196 3198 3200 3201 3203 3205 3206 3207 3209 3210 3212 3213 3215 3217 3218 3220 3221 3223 3224 3225 3227 3227 3229 3230 3230 3231 3231 3232 3233 3233 3234 3235 3237 3238 3238 3239 3240 3241 3242 3243 3243 3243 3244 3244 3245 3245 3245 3245 3245 3245 3245 3244 3244 3243 3243 3243 3242 3241 3240 3240 3239 3238 3237 3235 3234 3232 3230 3229 3227 3225 3224
3163 3165 3168 3170 3172 3174 3176 3178 3180 3183 3185 3187 3189 3191 3194 3196 3197 3199 3200 3202 3204 3205 3207 3208 3210 3211 3213 3214 3216 3217 3219 3220 3221 3223 3224 3225 3226 3228 3228 3229 3229 3230 3231 3231 3232 3233 3235 3236 3237 3237 3238 3239 3240 3241 3241 3242 3242 3243 3243 3243 3244 3244 3244 3244 3243 3243 3242 3242 3241 3241 3240 3239 3238 3237 3236 3235 3234 3233 3232 3230 3228 3226 3224 3222 3220
3161 3163 3165 3167 3170 3172 3174 3176 3178 3180 3182 3185 3187 3189 3191 3193 3195 3196 3197 3200 3201 3203 3205 3206 3207 3209 3210 3212 3213 3214 3216 3217 3219 3220 3222 3224 3225 3226 3226 3227 3228 3228 3229 3229 3230 3231 3233 3234 3235 3235 3236 3237 3238 3239 3240 3240 3241 3241 3242 3242 3242 3242 3242 3242 3242 3242 3241 3240 3240 3239 3238 3238 3237 3236 3234 3233 3232 3231 3230 3228 3226 3224 3222 3220 3218
3158 3160 3162 3165 3167 3169 3171 3173 3175 3177 3179 3182 3184 3186 3188 3190 3192 3193 3195 3197 3199 3201 3202 3203 3205 3206 3208 3209 3211 3212 3213 3215 3216 3218 3220 3221 3223 3223 3224 3225 3226 3226 3227 3227 3228 3229 3231 3232 3233 3234 3234 3235 3236 3237 3238 3238 3239 3240 3240 3240 3241 3241 3241 3241 3240 3240 3239 3239 3238 3238 3237 3236 3236 3234 3233 3232 3231 3229 3227 3226 3223 3222 3220 3218 3217
3155 3157 3160 3162 3164 3166 3169 3171 3173 3175 3177 3179 3181 3183 3185 3187 3189 3191 3192 3195 3197 3198 3200 3201 3203 3204 3205 3206 3208 3209 3210 3212 3213 3215 3217 3219 3220 3221 3222 3223 3224 3224 3225 3225 3226 3227 3229 3230 3231 3232 3232 3233 3235 3236 3236 3237 3238 3238 3239 3239 3239 3239 3239 3239 3239 3239 3238 3237 3237 3236 3236 3235 3234 3233 3232 3231 3229 3228 3226 3223 3221 3219 3218 3215 3214
3153 3155 3157 3160 3161 3164 3166 3168 3170 3172 3174 3176 3178 3181 3183 3184 3186 3188 3189 3192 3194 3196 3197 3198 3200 3202 3203 3204 3205 3206 3208 3209 3210 3213 3215 3217 3218 3219 3220 3220 3221 3222 3222 3223 3224 3225 3226 3228 3229 3230 3230 3231 3233 3234 3235 3236 3236 3237 3237 3237 3237 3237 3237 3237 3237 3237 3237 3236 3235 3235 3235 3234 3232 3231 3230 3229 3227 3226 3224 3221 3219 3217 3215 3213 3211
3150 3152 3154 3156 3159 3161 3163 3165 3167 3170 3172 3174 3176 3178 3180 3181 3183 3185 3187 3189 3191 3193 3194 3196 3198 3199 3200 3201 3203 3204 3205 3206 3208 3210 3212 3214 3215 3216 3217 3218 3219 3219 3220 3221 3222 3223 3224 3226 3227 3228 3229 3230 3231 3232 3233 3234 3235 3235 3235 3235 3235 3236 3235 3235 3235 3235 3235 3234 3233 3233 3233 3232 3230 3230 3229 3227 3225 3223 3221 3218 3216 3214 3213 3210 3208
3147 3149 3151 3154 3156 3158 3161 3163 3165 3167 3169 3171 3173 3175 3177 3178 3181 3183 3185 3186 3188 3190 3192 3193 3195 3196 3198 3199 3200 3202 3203 3204 3205 3208 3210 3211 3213 3213 3214 3215 3216 3217 3217 3218 3219 3221 3222 3223 3224 3226 3227 3228 3229 3230 3231 3232 3233 3233 3233 3233 3233 3234 3234 3233 3233 3233 3232 3232 3231 3231 3231 3230 3228 3227 3227 3225 3223 3221 3218 3215 3214 3212 3210 3207 3205
3144 3146 3148 3151 3153 3155 3158 3160 3162 3164 3166 3168 3169 3172 3174 3175 3178 3180 3182 3183 3185 3187 3189 3190 3192 3193 3195 3196 3198 3200 3201 3201 3203 3205 3207 3209 3210 3211 3211 3212 3213 3214 3215 3216 3217 3218 3219 3221 3222 3224 3225 3226 3227 3228 3229 3230 3230 3231 3231 3231 3232 3232 3232 3232 3232 3231 3231 3230 3229 3228 3228 3227 3226 3225 3224 3223 3220 3218 3216 3213 3211 3209 3207 3204 3203
3140 3143 3146 3148 3150 3153 3155 3157 3159 3161 3163 3165 3167 3169 3170 3172 3174 3176 3179 3180 3182 3184 3186 3187 3189 3190 3192 3194 3195 3197 3198 3199 3200 3203 3205 3206 3207 3208 3208 3209 3210 3211 3212 3213 3214 3216 3217 3219 3220 3222 3223 3224 3225 3226 3227 3228 3228 3228 3228 3229 3229 3229 3229 3229 3229 3229 3228 3227 3227 3226 3226 3225 3224 3223 3222 3220 3218 3215 3213 3210 3209 3207 3204 3202 3201
3137 3140 3143 3145 3147 3150 3152 3154 3156 3158 3160 3162 3164 3166 3167 3169 3171 3173 3175 3177 3179 3181 3183 3185 3186 3187 3189 3191 3192 3194 3196 3197 3198 3200 3202 3203 3204 3204 3205 3206 3207 3208 3210 3211 3212 3213 3215 3216 3218 3219 3221 3222 3223 3224 3225 3226 3226 3226 3226 3226 3226 3226 3227 3227 3227 3226 3225 3224 3223 3223 3223 3222 3221 3220 3218 3217 3214 3212 3209 3207 3206 3204 3201 3200 3199
3134 3137 3140 3142 3144 3146 3149 3151 3153 3155 3157 3159 3161 3163 3164 3166 3168 3170 3172 3174 3176 3178 3180 3182 3184 3185 3186 3188 3189 3191 3193 3194 3196 3198 3199 3200 3201 3202 3202 3203 3204 3206 3207 3209 3210 3211 3213 3214 3216 3217 3218 3220 3221 3222 3223 3223 3223 3223 3223 3223 3223 3223 3224 3224 3224 3223 3222 3221 3221 3220 3219 3218 3217 3216 3214 3212 3210 3208 3205 3203 3202 3200 3198 3197 3196
3131 3135 3137 3139 3141 3143 3146 3149 3151 3152 3154 3156 3158 3160 3162 3164 3166 3168 3170 3172 3174 3176 3177 3179 3180 3182 3183 3185 3187 3189 3190 3191 3193 3195 3196 3198 3199 3199 3200 3200 3201 3203 3205 3206 3208 3209 3210 3212 3213 3214 3216 3217 3218 3218 3219 3220 3220 3220 3220 3220 3220 3220 3221 3221 3221 3220 3219 3219 3218 3217 3216 3215 3214 3212 3211 3209 3207 3205 3202 3200 3199 3197 3195 3194 3193
3129 3132 3134 3136 3138 3140 3143 3146 3148 3150 3152 3154 3156 3157 3159 3161 3163 3165 3167 3169 3171 3172 3174 3175 3177 3179 3180 3182 3183 3185 3187 3188 3190 3192 3194 3195 3196 3197 3197 3197 3199 3201 3203 3204 3205 3206 3208 3209 3210 3211 3213 3214 3215 3215 3216 3217 3217 3217 3217 3217 3217 3218 3218 3218 3218 3217 3217 3216 3216 3215 3214 3213 3211 3209 3208 3206 3204 3201 3199 3197 3196 3194 3193 3192 3190
3125 3128 3130 3133 3135 3138 3140 3143 3145 3147 3149 3151 3153 3155 3157 3159 3160 3163 3165 3166 3168 3169 3171 3172 3174 3176 3177 3178 3180 3182 3184 3186 3186 3188 3191 3192 3193 3194 3194 3195 3196 3198 3200 3202 3202 3203 3205 3206 3207 3208 3210 3211 3212 3212 3212 3213 3214 3214 3214 3214 3215 3215 3215 3215 3215 3214 3214 3213 3212 3211 3210 3210 3209 3207 3205 3203 3201 3198 3196 3194 3193 3192 3190 3188 3187
3122 3124 3127 3130 3132 3135 3138 3140 3142 3145 3146 3148 3151 3152 3154 3156 3158 3160 3162 3163 3164 3166 3168 3169 3171 3173 3174 3175 3176 3178 3181 3183 3183 3185 3188 3189 3191 3191 3192 3192 3194 3196 3198 3199 3200 3200 3201 3203 3204 3205 3206 3207 3208 3209 3209 3209 3210 3211 3212 3212 3212 3212 3212 3212 3212 3211 3211 3210 3209 3209 3207 3206 3205 3204 3202 3200 3198 3196 3194 3192 3191 3190 3188 3186 3184
3118 3121 3124 3127 3129 3132 3135 3137 3139 3141 3143 3146 3148 3150 3152 3154 3155 3157 3159 3160 3161 3163 3164 3166 3168 3169 3171 3173 3174 3175 3178 3179 3181 3182 3184 3186 3188 3189 3189 3190 3191 3193 3194 3195 3197 3198 3198 3199 3200 3201 3202 3204 3205 3206 3206 3206 3207 3208 3209 3209 3209 3209 3209 3209 3209 3208 3208 3207 3206 3205 3204 3203 3201 3199 3198 3197 3195 3193 3191 3190 3189 3188 3187 3185 3182
3115 3118 3121 3124 3126 3129 3132 3135 3137 3139 3141 3143 3145 3147 3149 3151 3152 3154 3156 3157 3158 3159 3161 3163 3165 3166 3168 3170 3171 3173 3174 3176 3177 3179 3181 3183 3185 3186 3187 3187 3188 3189 3191 3192 3193 3194 3195 3196 3197 3198 3199 3201 3202 3203 3203 3203 3204 3205 3205 3206 3206 3206 3205 3205 3205 3205 3204 3204 3203 3202 3200 3199 3197 3195 3194 3193 3192 3190 3189 3187 3186 3185 3184 3183 3180
3112 3115 3118 3121 3123 3126 3129 3132 3134 3136 3138 3140 3142 3144 3146 3148 3149 3151 3153 3154 3155 3156 3158 3160 3162 3164 3165 3167 3169 3170 3171 3173 3175 3176 3178 3180 3182 3183 3184 3184 3185 3186 3187 3188 3189 3190 3191 3193 3194 3195 3196 3198 3200 3201 3201 3201 3201 3202 3202 3202 3202 3202 3202 3202 3202 3201 3201 3200 3198 3197 3196 3194 3193 3191 3190 3189 3188 3187 3186 3185 3183 3182 3181 3180 3178
3109 3112 3115 3118 3120 3123 3126 3129 3131 3133 3135 3137 3139 3141 3143 3145 3146 3148 3150 3152 3153 3154 3156 3158 3160 3162 3163 3165 3167 3168 3169 3171 3172 3174 3176 3177 3178 3180 3180 3181 3182 3182 3183 3184 3186 3187 3189 3190 3191 3192 3194 3195 3197 3197 3197 3197 3198 3198 3198 3198 3198 3198 3198 3198 3198 3197 3196 3195 3194 3192 3191 3190 3189 3188 3187 3186 3184 3184 3183 3182 3180 3179 3178 3177 3176
3106 3109 3111 3114 3117 3121 3124 3126 3128 3130 3131 3133 3135 3138 3140 3142 3143 3145 3147 3149 3151 3152 3154 3156 3158 3160 3161 3163 3165 3166 3168 3169 3170 3171 3172 3174 3175 3176 3177 3178 3179 3179 3180 3181 3183 3185 3186 3187 3188 3190 3191 3192 3193 3193 3193 3193 3194 3194 3195 3195 3195 3194 3194 3194 3194 3193 3192 3191 3190 3188 3187 3186 3185 3184 3183 3182 3181 3180 3180 3179 3178 3176 3175 3174 3172
3103 3105 3108 3111 3115 3118 3121 3123 3125 3126 3128 3130 3132 3134 3137 3139 3140 3142 3145 3147 3148 3150 3152 3154 3155 3157 3159 3160 3162 3164 3165 3166 3168 3169 3169 3171 3172 3173 3174 3175 3176 3177 3178 3179 3181 3183 3184 3184 3185 3186 3187 3187 3188 3188 3189 3189 3190 3190 3190 3190 3190 3189 3189 3190 3189 3188 3187 3186 3185 3184 3184 3182 3181 3181 3180 3178 3178 3177 3177 3176 3175 3174 3172 3170 3169
3099 3102 3105 3109 3112 3115 3117 3120 3121 3123 3125 3127 3129 3132 3134 3136 3137 3139 3141 3143 3145 3147 3149 3151 3152 3154 3155 3157 3159 3161 3162 3163 3165 3166 3166 3167 3169 3170 3171 3172 3173 3174 3176 3177 3178 3179 3179 3180 3182 3182 3183 3183 3184 3184 3185 3185 3185 3185 3186 3186 3185 3185 3185 3186 3185 3184 3183 3183 3181 3180 3180 3179 3178 3178 3177 3175 3174 3174 3173 3172 3171 3170 3169 3167 3165
3096 3099 3102 3105 3108 3111 3114 3116 3118 3120 3122 3124 3127 3129 3131 3133 3134 3136 3138 3140 3142 3144 3145 3147 3149 3150 3152 3153 3155 3157 3158 3160 3161 3162 3163 3163 3165 3167 3168 3169 3170 3172 3173 3174 3174 3175 3175 3176 3177 3178 3179 3179 3180 3180 3181 3181 3180 3180 3181 3181 3181 3180 3181 3181 3180 3180 3179 3178 3177 3177 3176 3175 3175 3174 3174 3172 3171 3171 3170 3169 3168 3167 3166 3164 3162
3093 3096 3099 3102 3105 3108 3111 3113 3115 3118 3120 3122 3124 3126 3128 3130 3131 3132 3135 3137 3138 3140 3142 3143 3145 3147 3148 3150 3152 3153 3155 3156 3157 3158 3159 3160 3162 3164 3166 3167 3167 3169 3170 3170 3171 3171 3172 3172 3173 3174 3174 3174 3175 3176 3176 3176 3176 3176 3176 3177 3176 3176 3175 3175 3175 3175 3175 3174 3174 3173 3173 3172 3172 3171 3170 3169 3168 3167 3167 3166 3165 3164 3162 3161 3159
3090 3093 3096 3099 3102 3105 3108 3110 3112 3115 3117 3119 3121 3122 3124 3126 3128 3129 3132 3134 3135 3137 3139 3140 3142 3143 3145 3147 3148 3150 3151 3152 3154 3155 3156 3158 3159 3161 3163 3164 3165 3165 3166 3166 3166 3167 3167 3168 3168 3169 3170 3170 3171 3172 3172 3172 3172 3172 3172 3172 3172 3171 3170 3170 3170 3170 3170 3170 3170 3169 3169 3168 3168 3168 3167 3166 3165 3164 3164 3163 3162 3161 3159 3157 3155
3087 3089 3093 3096 3099 3102 3104 3107 3109 3112 3113 3116 3118 3120 3121 3123 3125 3127 3129 3131 3132 3134 3136 3137 3139 3140 3142 3143 3145 3146 3148 3149 3151 3152 3154 3155 3156 3157 3158 3160 3161 3161 3161 3161 3162 3163 3163 3163 3164 3164 3165 3166 3166 3166 3167 3167 3166 3167 3167 3167 3167 3167 3168 3167 3166 3166 3166 3166 3166 3165 3165 3165 3164 3164 3163 3163 3162 3161 3160 3159 3158 3157 3155 3153 3151
3083 3086 3091 3094 3097 3099 3101 3104 3106 3109 3111 3113 3115 3117 3119 3120 3122 3124 3126 3127 3129 3131 3133 3134 3136 3137 3138 3140 3142 3143 3145 3146 3148 3149 3151 3152 3153 3153 3154 3155 3156 3157 3157 3157 3158 3158 3158 3158 3159 3159 3160 3161 3161 3161 3163 3162 3162 3162 3162 3162 3162 3164 3164 3163 3162 3162 3162 3162 3161 3161 3161 3161 3161 3160 3160 3159 3158 3157 3156 3155 3154 3153 3151 3149 3147
3080 3084 3089 3092 3094 3096 3098 3101 3103 3106 3108 3110 3112 3114 3116 3118 3119 3121 3123 3124 3126 3128 3129 3131 3132 3134 3135 3137 3138 3140 3141 3143 3145 3147 3148 3149 3149 3150 3151 3151 3152 3152 3153 3153 3154 3154 3154 3154 3155 3155 3156 3157 3157 3158 3159 3158 3158 3159 3159 3159 3160 3162 3161 3159 3159 3159 3159 3158 3158 3158 3158 3157 3157 3157 3156 3155 3154 3153 3152 3151 3150 3148 3147 3145 3143
3076 3081 3085 3088 3090 3093 3095 3098 3100 3102 3104 3107 3109 3111 3113 3115 3116 3118 3120 3122 3123 3124 3126 3128 3130 3131 3132 3133 3135 3136 3138 3140 3142 3143 3145 3145 3146 3147 3147 3148 3149 3149 3150 3150 3150 3151 3151 3150 3150 3151 3152 3153 3154 3155 3155 3155 3155 3156 3156 3156 3158 3158 3157 3156 3156 3155 3155 3154 3155 3155 3155 3154 3153 3153 3152 3151 3150 3149 3148 3147 3145 3144 3143 3141 3139
3073 3076 3080 3083 3086 3089 3092 3095 3098 3100 3102 3104 3106 3107 3109 3111 3113 3115 3117 3118 3120 3121 3123 3125 3126 3128 3129 3130 3131 3133 3135 3137 3139 3140 3141 3142 3142 3143 3143 3144 3145 3146 3146 3146 3146 3147 3147 3147 3147 3147 3148 3149 3150 3150 3150 3151 3152 3152 3152 3153 3154 3154 3153 3153 3152 3152 3151 3151 3151 3151 3151 3150 3149 3149 3148 3146 3145 3145 3144 3143 3141 3140 3138 3137 3136
3069 3072 3076 3079 3082 3086 3089 3092 3095 3097 3099 3101 3102 3104 3107 3109 3111 3112 3114 3115 3117 3118 3119 3121 3122 3124 3126 3127 3128 3130 3131 3133 3135 3136 3137 3137 3138 3138 3139 3140 3140 3141 3141 3141 3142 3142 3142 3142 3142 3143 3143 3144 3145 3145 3146 3148 3148 3148 3149 3150 3150 3150 3149 3149 3148 3149 3148 3148 3147 3146 3146 3146 3145 3144 3143 3143 3142 3140 3140 3139 3137 3136 3134 3132 3131
3065 3069 3073 3076 3079 3082 3085 3087 3090 3093 3095 3097 3099 3101 3104 3106 3107 3108 3110 3111 3112 3113 3115 3117 3119 3121 3122 3123 3125 3126 3128 3129 3131 3132 3132 3133 3133 3133 3134 3135 3136 3136 3137 3137 3137 3137 3136 3135 3137 3139 3141 3141 3142 3142 3143 3144 3145 3145 3146 3146 3146 3145 3145 3144 3145 3146 3145 3144 3143 3142 3142 3142 3141 3140 3139 3139 3138 3137 3135 3134 3133 3132 3130 3128 3126
3062 3066 3069 3072 3075 3077 3080 3082 3085 3088 3091 3093 3095 3098 3100 3102 3103 3105 3106 3107 3108 3109 3111 3113 3115 3116 3118 3119 3121 3122 3123 3125 3126 3127 3128 3129 3129 3129 3130 3131 3131 3132 3133 3133 3133 3133 3132 3133 3136 3139 3139 3139 3139 3139 3140 3141 3141 3141 3142 3142 3142 3141 3141 3141 3142 3142 3142 3141 3139 3138 3137 3137 3136 3136 3135 3135 3134 3132 3131 3130 3129 3127 3126 3125 3123
3059 3062 3065 3069 3071 3074 3076 3079 3082 3084 3087 3089 3091 3094 3096 3097 3099 3100 3101 3102 3104 3106 3108 3109 3111 3112 3114 3115 3116 3118 3119 3120 3122 3123 3124 3125 3125 3125 3126 3127 3127 3128 3128 3129 3129 3129 3129 3131 3133 3134 3135 3135 3135 3135 3135 3136 3137 3137 3138 3138 3138 3138 3138 3138 3138 3137 3137 3137 3136 3135 3134 3133 3132 3131 3131 3130 3129 3128 3127 3126 3125 3123 3121 3120 3119
3057 3059 3062 3065 3068 3070 3073 3075 3078 3081 3083 3086 3088 3089 3091 3093 3094 3095 3097 3099 3101 3102 3104 3105 3107 3108 3109 3110 3112 3114 3115 3116 3118 3119 3119 3120 3121 3121 3122 3123 3124 3124 3124 3125 3126 3126 3126 3127 3128 3130 3131 3132 3131 3131 3132 3133 3133 3133 3133 3134 3134 3134 3134 3134 3134 3133 3133 3133 3132 3131 3131 3130 3128 3127 3126 3125 3125 3124 3123 3121 3120 3119 3117 3116 3115
3054 3057 3060 3062 3064 3067 3069 3072 3074 3076 3079 3081 3084 3086 3087 3089 3091 3092 3093 3095 3097 3098 3099 3101 3102 3104 3105 3106 3108 3109 3111 3112 3113 3114 3114 3115 3116 3117 3118 3120 3120 3119 3120 3122 3123 3123 3123 3124 3124 3126 3127 3128 3127 3128 3128 3129 3129 3129 3129 3130 3130 3130 3130 3130 3130 3130 3130 3129 3128 3127 3126 3126 3125 3124 3123 3121 3120 3119 3118 3117 3116 3115 3114 3112 3111
3051 3054 3056 3059 3061 3064 3067 3069 3070 3072 3075 3077 3080 3083 3086 3089 3089 3089 3090 3092 3093 3094 3095 3097 3098 3100 3101 3102 3104 3105 3106 3107 3108 3109 3109 3110 3111 3112 3114 3116 3116 3116 3117 3119 3120 3120 3120 3120 3120 3121 3122 3123 3123 3123 3124 3124 3125 3125 3126 3126 3126 3126 3126 3126 3126 3126 3125 3124 3123 3123 3122 3121 3121 3120 3119 3117 3116 3115 3114 3113 3112 3110 3109 3108 3107
3047 3050 3052 3055 3058 3061 3064 3066 3068 3070 3072 3074 3077 3080 3085 3089 3088 3086 3087 3088 3089 3091 3092 3094 3095 3096 3098 3099 3100 3101 3102 3103 3103 3104 3104 3105 3107 3108 3110 3111 3112 3112 3113 3115 3115 3116 3116 3116 3117 3117 3118 3118 3119 3119 3120 3120 3121 3121 3122 3122 3122 3122 3122 3122 3122 3121 3121 3120 3119 3118 3118 3117 3116 3115 3114 3113 3112 3111 3110 3109 3107 3106 3105 3104 3103
3046 3048 3050 3052 3055 3059 3062 3065 3067 3068 3069 3072 3075 3078 3082 3084 3083 3082 3083 3084 3086 3087 3089 3091 3093 3094 3095 3096 3096 3097 3097 3097 3097 3098 3099 3101 3102 3104 3105 3107 3108 3109 3110 3111 3111 3112 3112 3113 3113 3114 3114 3115 3115 3116 3116 3116 3117 3117 3117 3117 3117 3117 3117 3117 3117 3116 3116 3115 3114 3114 3113 3112 3111 3110 3109 3108 3107 3106 3105 3104 3103 3102 3101 3101 3100
3047 3048 3050 3053 3055 3058 3061 3064 3067 3068 3068 3070 3073 3076 3078 3079 3079 3079 3080 3082 3083 3085 3086 3088 3090 3091 3092 3092 3092 3092 3092 3092 3093 3095 3097 3098 3099 3100 3101 3103 3104 3105 3106 3107 3108 3108 3108 3109 3110 3110 3111 3111 3112 3112 3112 3113 3113 3113 3113 3113 3113 3113 3113 3113 3112 3112 3111 3110 3110 3109 3108 3107 3106 3105 3104 3103 3102 3101 3100 3099 3099 3098 3097 3096 3096
3048 3050 3051 3053 3055 3057 3059 3062 3065 3067 3068 3070 3072 3073 3074 3075 3076 3076 3078 3079 3081 3083 3085 3087 3087 3088 3089 3089 3089 3089 3089 3090 3092 3093 3094 3095 3095 3097 3098 3099 3100 3101 3102 3103 3103 3104 3104 3104 3105 3106 3106 3107 3107 3108 3108 3109 3109 3109 3109 3109 3109 3109 3108 3108 3108 3107 3106 3106 3105 3104 3103 3102 3101 3100 3099 3098 3097 3096 3095 3094 3094 3093 3092 3092 3091
3048 3049 3050 3052 3055 3058 3060 3061 3063 3065 3067 3069 3071 3071 3071 3072 3073 3074 3075 3077 3078 3080 3082 3084 3084 3085 3085 3086 3086 3087 3088 3088 3089 3090 3091 3091 3092 3093 3094 3095 3095 3096 3097 3098 3098 3099 3099 3100 3101 3101 3102 3102 3103 3103 3104 3104 3104 3104 3104 3104 3104 3104 3104 3103 3103 3102 3101 3101 3100 3099 3098 3097 3096 3095 3094 3093 3092 3091 3091 3090 3089 3088 3088 3087 3086
3047 3048 3049 3051 3054 3057 3059 3060 3062 3063 3064 3066 3068 3069 3069 3069 3070 3071 3073 3075 3076 3078 3079 3080 3081 3082 3083 3083 3084 3085 3085 3086 3087 3087 3088 3089 3089 3090 3090 3091 3091 3092 3093 3094 3094 3095 3095 3096 3096 3096 3097 3098 3098 3098 3099 3099 3099 3099 3099 3099 3099 3099 3098 3098 3097 3097 3096 3095 3095 3094 3093 3092 3092 3091 3090 3089 3088 3087 3087 3086 3085 3084 3084 3083 3082
3045 3047 3048 3050 3052 3054 3056 3058 3060 3061 3063 3064 3065 3066 3066 3067 3068 3069 3071 3073 3074 3076 3077 3077 3078 3079 3079 3080 3081 3082 3083 3083 3084 3085 3085 3086 3086 3087 3087 3088 3088 3089 3090 3091 3091 3091 3091 3092 3092 3092 3093 3093 3094 3094 3094 3094 3094 3094 3094 3094 3094 3093 3093 3093 3092 3091 3091 3090 3089 3089 3088 3087 3086 3086 3085 3084 3084 3083 3082 3081 3080 3080 3079 3078 3077